Flag for Nigeria Weather past 2 weeks in Sokoto, Nigeria

Now
84 °F

Clear.


Feels Like: 81 °F
Forecast: 67 / 100 °F
Wind: 5 mph from Northeast

Location: Niamey-Aero

Current Time: Mar 29, 2015 at 12:36:22 PM

Latest Report: Mar 29, 2015 at 10:00 AM


Visibility: 5 mi

Pressure: 29.92 "Hg

Humidity: 8%

Dew point: 18 °F

Location of SokotoLocation

Historic Weather in Sokoto — Graph

°F

Sokoto temperature yesterday

Maximum temperature yesterday: 99 °F (at 2:00 PM)
Minimum temperature yesterday: 73 °F (at 6:00 AM)
Average temperature yesterday: 85 °F

Past Weeks' High & Low Weather Summary

 TemperatureHumidityPressure
High108 °F (Mar 23, 4:00 PM)43% (Mar 24, 6:00 AM)30.01 "Hg (Mar 24, 6:00 AM)
Low68 °F (Mar 29, 7:00 AM)4% (Mar 14, 4:00 PM)29.65 "Hg (Mar 19, 3:00 PM)
Average92 °F14%29.80 "Hg
* Reported Mar 14 10:00 AM — Mar 29 10:00 AM, Sokoto, Weather by CustomWeather, © 2015

Note: Actual official high and low records may vary slightly from our data, if they occured in-between our weather recording intervals... More about our weather records

Advertising

Sokoto weather history for previous 24 hours

 ConditionsComfort  
Time TempWeatherWind HumidityBarometerVisibility
10:00 AM
Sun, Mar 29
84 °FClear.5 mph8%29.92 "Hg5 mi
9:00 AM81 °FClear.7 mph9%29.92 "Hg4 mi
8:00 AM75 °FDuststorm.3 mph12%29.89 "Hg3 mi
7:00 AM68 °FClear.1 mph16%29.86 "Hg5 mi
6:00 AM72 °FClear.2 mph15%29.83 "Hg10 mi
5:00 AM72 °FClear.5 mph15%29.83 "Hg10 mi
4:00 AM73 °FClear.1 mph13%29.83 "Hg10 mi
2:00 AM75 °FClear.2 mph10%29.86 "Hg10 mi
1:00 AM77 °FClear.5 mph10%29.86 "Hg10 mi
12:00 AM79 °FClear.6 mph9%29.89 "Hg10 mi
11:00 PM
Sat, Mar 28
81 °FClear.6 mph8%29.92 "Hg10 mi
10:00 PM82 °FClear.5 mph8%29.89 "Hg10 mi
9:00 PM88 °FClear.5 mph7%29.89 "Hg10 mi
8:00 PM90 °FClear.5 mph5%29.86 "Hg5 mi
7:00 PM93 °FSunny.6 mph4%29.86 "Hg10 mi
6:00 PM97 °FSunny.9 mph4%29.83 "Hg10 mi
5:00 PM97 °FSunny.14 mph4%29.83 "Hg10 mi
4:00 PM99 °FPassing clouds.12 mph4%29.83 "HgN/A
3:00 PM97 °FPassing clouds.13 mph4%29.86 "HgN/A
2:00 PM99 °FPassing clouds.10 mph4%29.89 "HgN/A
Weather by CustomWeather, © 2015

See weather overviewHow to use our weather pages